Weather Roundup
Issued by NWS Chicago, IL

Home | Current Version | Previous Version | Graphics & Text | Print | Product List | Glossary On
Versions: 1 2 3 4 5 6 7 8 9 10 11 12 13 14 15 16 17 18 19 20 21 22 23 24 25 26 27 28 29 30 31 32 33 34 35 36 37 38 39 40 41 42 43 44 45 46 47 48 49 50
292
NZUS59 KLOT 242008
HRRLOT

CHICAGO AREA WEATHER ROUNDUP
NATIONAL WEATHER SERVICE CHICAGO/ROMEOVILLE IL
200 PM CST TUE JAN 24 2017

NOTE: "FAIR" INDICATES FEW OR NO CLOUDS BELOW 12,000 FEET WITH NO
SIGNIFICANT WEATHER AND/OR OBSTRUCTIONS TO VISIBILITY.

* THESE STATIONS ARE NOT UNDER NWS QUALITY CONTROL. THEY ALSO MAY NOT
  REPORT WEATHER SUCH AS PRECIPITATION OR FOG.

ILZ005-006-012>014-019>023-242100-
NORTHEAST ILLINOIS

CITY           SKY/WX    TMP DP  RH WIND       PRES   REMARKS
OHARE          CLOUDY    35  31  85 CALM      29.83F
MIDWAY         CLOUDY    38  30  73 N6        29.84F
AURORA         CLOUDY    37  31  78 CALM      29.84F
LANSING*       CLOUDY    38  33  84 CALM      29.85F
JOLIET*        CLOUDY    39  33  78 CALM      29.85S
WAUKEGAN       CLOUDY    37  32  82 W3        29.83S
DUPAGE AIRPORT CLOUDY    36  30  79 NE5       29.83F
WHEELING       CLOUDY    36  31  82 CALM      29.85F
KANKAKEE*      CLOUDY    39  32  77 CALM      29.87R
MORRIS*        CLOUDY    38  32  78 CALM      29.84S
LEWIS AIRPORT* CLOUDY    37  33  88 CALM      29.84S
NORTHERLY ISL    N/A     36  31  82 W2          N/A
$$

WIZ051-052-058>065-066-070>072-242100-
SOUTHEAST WISCONSIN

CITY           SKY/WX    TMP DP  RH WIND       PRES   REMARKS
MILWAUKEE      CLOUDY    39  32  76 W8        29.83F
KENOSHA*       CLOUDY    37  32  82 CALM      29.83F
RACINE*        CLOUDY    37  32  82 W3        29.84F
WAUKESHA       CLOUDY    36  32  87 NW6       29.83F
WEST BEND      CLOUDY    36  34  93 N6        29.82S
$$

INZ001>003-010>013-019-020-242100-
NORTHWEST INDIANA

CITY           SKY/WX    TMP DP  RH WIND       PRES   REMARKS
GARY*          CLOUDY    37  32  81 NE8       29.86F
MICHIGAN CITY* NOT AVBL
RENSSELAER*    NOT AVBL
VALPARAISO     CLOUDY    38  33  82 VRB3      29.84F HAZE
$$

LMZ740>746-242100-
SOUTHERN LAKE MICHIGAN

STATION/POSITION TIME  SKY/WX   TEMP WIND        PRES    VSBY
                                AIR  DIR/SP/G
                 (UTC)          (F)  (DEG/KT/KT) (MB)    (MI)
HARRISON CRIB    1940            35  360/  6/  6   N/A
BURNHAM HARBOR   2000            36  250/  4/  7   N/A
CALUMET HARBOR   1942            34   40/  6/  7 1010.3F
BURNS HARBOR     1940            34   20/  4/  4 1011.5F
MICHIGAN CITY    NOT AVBL
$$

ABBREVIATIONS USED IN REMARKS
   TC - TEMPERATURE IN CELSIUS
  WCI - WIND CHILL INDEX
   HX - HEAT INDEX
  VSB - VISIBILITY
$$




USA.gov is the U.S. government's official web portal to all federal, state and local government web resources and services.